Weather History for Philip, SD

Change the Weather History Date:

Saturday, March 1, 2014

  Actual Average Record
Temperature  
Mean Temperature -6 °F 29 °F  
Max Temperature 5 °F 42 °F 76 °F (1974)
Min Temperature -18 °F 16 °F -21 °F (1962)
Degree Days  
Heating Degree Days 71 36  
Month to date heating degree days 71 36  
Since 1 July heating degree days 5674 5401  
Cooling Degree Days 0 0  
Month to date cooling degree days 0 0  
Year to date cooling degree days 0 0  
Moisture  
Dew Point -11 °F    
Average Humidity 72    
Maximum Humidity 79    
Minimum Humidity 64    
Precipitation  
Precipitation 0.23 in 0.04 in 0.33 in (1953)
Month to date precipitation 0.23 0.04  
Year to date precipitation 0.71 0.82  
Sea Level Pressure  
Sea Level Pressure 30.45 in    
Wind  
Wind Speed 9 mph (NE)    
Max Wind Speed 15 mph    
Max Gust Speed 20 mph    
Visibility 3 miles    
Events Snow    
T = Trace of Precipitation, MM = Missing Value Source: NWS Daily Summary

Daily Weather History Graph

Daily Weather History Graph

Search for Another Location

Airport:

Trip Planner

Search our weather history database for the weather conditions in past years. The results will help you decide how hot, cold, wet, or windy it might be!

Date:

Astronomy

Mar. 01, 2014 Rise Set
Actual Time 6:23 AM MST 5:34 PM MST
Civil Twilight 5:54 AM MST 6:03 PM MST
Nautical Twilight 5:20 AM MST 6:37 PM MST
Astronomical Twilight 4:47 AM MST 7:10 PM MST
Moon 6:16 AM MST (3/1) 6:27 PM MST (3/1)
Length of Visible Light 12h 09m
Length of Day
11h 11m
New Moon, 0% of the Moon is Illuminated
Mar 1
New Moon
Mar 8
First Quarter
Mar 16
Full
Mar 23
Last Quarter
Mar 30
New

Hourly Weather History & Observations

Time (MST) Temp. Windchill Dew Point Humidity Pressure Visibility Wind Dir Wind Speed Gust Speed Precip Events Conditions
12:02 AM 5.0 °F -11.6 °F -2.2 °F 72% 30.25 in 9.0 mi NNE 12.7 mph - 0.00 in Snow Light Snow
12:55 AM 3.9 °F -13.7 °F -2.9 °F 73% 30.37 in 3.0 mi NE 13.8 mph - 0.00 in Snow Light Snow
1:02 AM 3.2 °F -12.2 °F -2.2 °F 78% 30.25 in 2.0 mi NNE 10.4 mph - 0.01 in Snow Light Snow
1:09 AM 3.2 °F -12.2 °F -2.2 °F 78% 30.25 in 1.8 mi NNE 10.4 mph - 0.01 in Snow Light Snow
1:48 AM 3.2 °F -10.3 °F -2.2 °F 78% 30.26 in 2.0 mi NE 8.1 mph - 0.02 in Snow Light Snow
1:55 AM 3.0 °F -13.3 °F -2.9 °F 76% 30.40 in 2.0 mi NE 11.5 mph - 0.02 in Snow Light Snow
2:15 AM 1.4 °F -16.1 °F -4.0 °F 78% 30.26 in 2.5 mi NE 12.7 mph - 0.01 in Snow Light Snow
2:22 AM 1.4 °F -16.1 °F -5.8 °F 72% 30.27 in 4.0 mi NE 12.7 mph - 0.01 in Snow Light Snow
2:55 AM 1.0 °F -14.9 °F -6.0 °F 72% 30.42 in 4.0 mi NE 10.4 mph - 0.01 in Snow Light Snow
3:09 AM 1.4 °F -14.5 °F -5.8 °F 72% 30.28 in 2.5 mi NE 10.4 mph - 0.00 in Snow Light Snow
3:20 AM 1.4 °F -14.5 °F -5.8 °F 72% 30.27 in 1.2 mi ENE 10.4 mph - 0.01 in Snow Light Snow
3:55 AM -0.0 °F -17.1 °F -6.0 °F 76% 30.43 in 2.5 mi NNE 11.5 mph - 0.02 in Snow Light Snow
3:58 AM -0.4 °F -18.4 °F -7.6 °F 72% 30.29 in 3.0 mi NNE 12.7 mph - 0.00 in Snow Light Snow
4:05 AM -0.4 °F -16.7 °F -5.8 °F 78% 30.31 in 1.8 mi NNE 10.4 mph - 0.00 in Snow Light Snow
4:12 AM -0.4 °F -19.9 °F -7.6 °F 72% 30.30 in 1.5 mi NE 15.0 mph - 0.00 in Snow Light Snow
4:41 AM -0.4 °F -17.6 °F -7.6 °F 72% 30.32 in 2.5 mi NE 11.5 mph - 0.01 in Snow Light Snow
4:55 AM -0.9 °F -17.4 °F -7.1 °F 75% 30.47 in 3.0 mi NE 10.4 mph - 0.01 in Snow Light Snow
5:03 AM -0.4 °F -19.9 °F -7.6 °F 72% 30.33 in 2.5 mi NE 15.0 mph - 0.00 in Snow Light Snow
5:18 AM -2.2 °F -22.2 °F -7.6 °F 78% 30.34 in 2.0 mi NE 15.0 mph - 0.01 in Snow Light Snow
5:27 AM -2.2 °F -21.5 °F -9.4 °F 71% 30.35 in 1.8 mi NE 13.8 mph - 0.01 in Snow Light Snow
5:35 AM -2.2 °F -21.5 °F -9.4 °F 71% 30.34 in 2.0 mi NE 13.8 mph - 0.01 in Snow Light Snow
5:49 AM -2.2 °F -20.7 °F -9.4 °F 71% 30.35 in 3.0 mi NE 12.7 mph - 0.02 in Snow Light Snow
5:55 AM -2.0 °F -20.5 °F -9.0 °F 72% 30.48 in 4.0 mi NE 12.7 mph - 0.02 in Snow Light Snow
6:55 AM -2.0 °F -18.7 °F -9.9 °F 69% 30.52 in 6.0 mi NE 10.4 mph - 0.00 in Snow Light Snow
7:34 AM -2.2 °F -19.9 °F -9.4 °F 71% 30.40 in 1.8 mi NNE 11.5 mph - 0.00 in Snow Light Snow
7:42 AM -2.2 °F -18.9 °F -9.4 °F 71% 30.39 in 1.0 mi NNE 10.4 mph - 0.00 in Snow Light Snow
7:51 AM -2.2 °F -19.9 °F -9.4 °F 71% 30.39 in 0.8 mi NE 11.5 mph - 0.01 in Snow Light Snow
7:55 AM -2.9 °F -20.8 °F -9.0 °F 75% 30.56 in 0.8 mi NE 11.5 mph - 0.01 in Snow Light Snow
8:06 AM -2.2 °F -18.9 °F -9.4 °F 71% 30.41 in 1.2 mi ENE 10.4 mph - 0.00 in Snow Light Snow
8:55 AM -2.9 °F -20.8 °F -11.0 °F 68% 30.58 in 1.5 mi NE 11.5 mph - 0.01 in Snow Light Snow
9:09 AM -2.2 °F -19.9 °F -9.4 °F 71% 30.43 in 2.0 mi NE 11.5 mph - 0.01 in Snow Light Snow
9:31 AM -4.0 °F -21.2 °F -11.2 °F 71% 30.44 in 1.8 mi NE 10.4 mph - 0.01 in Snow Light Snow
9:55 AM -4.0 °F -23.0 °F -11.0 °F 72% 30.59 in 0.8 mi ENE 12.7 mph - 0.02 in Snow Light Snow
10:03 AM -4.0 °F -23.7 °F -11.2 °F 71% 30.42 in 0.5 mi ENE 13.8 mph - 0.00 in Snow Snow
10:37 AM -4.0 °F -23.0 °F -11.2 °F 71% 30.43 in 1.0 mi ENE 12.7 mph - 0.03 in Snow Light Snow
10:55 AM -4.0 °F -21.2 °F -11.9 °F 69% 30.61 in 0.8 mi ENE 10.4 mph - 0.03 in Snow Light Snow
11:05 AM -5.8 °F -22.4 °F -11.2 °F 77% 30.43 in 1.2 mi ENE 9.2 mph - 0.01 in Snow Light Snow
11:13 AM -5.8 °F -24.4 °F -11.2 °F 77% 30.43 in 2.0 mi ENE 11.5 mph - 0.01 in Snow Light Snow
11:28 AM -4.0 °F -23.7 °F -11.2 °F 71% 30.42 in 4.0 mi ENE 13.8 mph - 0.01 in Snow Light Snow
11:55 AM -5.1 °F -23.5 °F -13.0 °F 69% 30.61 in 7.0 mi ENE 11.5 mph - 0.01 in   Overcast
12:55 PM -5.1 °F -23.5 °F -14.1 °F 65% 30.60 in 2.5 mi ENE 11.5 mph - 0.00 in Snow Light Snow
1:02 PM -5.8 °F -23.4 °F -14.8 °F 65% 30.43 in 6.0 mi NE 10.4 mph - 0.00 in Snow Light Snow
1:08 PM -5.8 °F -25.2 °F -14.8 °F 65% 30.42 in 2.5 mi NE 12.7 mph - 0.00 in Snow Light Snow
1:16 PM -5.8 °F -23.4 °F -14.8 °F 65% 30.42 in 0.8 mi NE 10.4 mph - 0.01 in Snow Light Snow
1:35 PM -5.8 °F -23.4 °F -13.0 °F 71% 30.42 in 0.2 mi NE 10.4 mph - 0.02 in Snow Heavy Snow
1:44 PM -5.8 °F -23.4 °F -11.2 °F 77% 30.43 in 0.2 mi NE 10.4 mph - 0.04 in Snow Heavy Snow
1:55 PM -6.0 °F -24.6 °F -13.0 °F 72% 30.60 in 0.5 mi NE 11.5 mph - 0.05 in Snow Snow
2:00 PM -5.8 °F -24.4 °F -13.0 °F 71% 30.43 in 1.0 mi NE 11.5 mph - 0.00 in Snow Light Snow
2:11 PM -5.8 °F -23.4 °F -14.8 °F 65% 30.43 in 2.0 mi NNE 10.4 mph - 0.00 in Snow Light Snow
2:20 PM -5.8 °F -25.2 °F -14.8 °F 65% 30.43 in 2.5 mi NE 12.7 mph - 0.01 in Snow Light Snow
2:27 PM -5.8 °F -24.4 °F -14.8 °F 65% 30.43 in 4.0 mi NE 11.5 mph - 0.01 in Snow Light Snow
2:55 PM -6.0 °F -23.6 °F -15.0 °F 65% 30.62 in 4.0 mi NE 10.4 mph - 0.01 in Snow Light Snow
3:55 PM -7.1 °F -21.4 °F -16.1 °F 65% 30.64 in 5.0 mi NNE 6.9 mph - 0.00 in Snow Light Snow
4:16 PM -7.6 °F -22.1 °F -16.6 °F 65% 30.44 in 2.0 mi NNE 6.9 mph - 0.00 in Snow Light Snow
4:23 PM -7.6 °F -20.6 °F -14.8 °F 71% 30.44 in 1.5 mi NNE 5.8 mph - 0.00 in Snow Light Snow
4:55 PM -7.1 °F -23.9 °F -16.1 °F 65% 30.63 in 3.0 mi NE 9.2 mph - 0.01 in Snow Light Snow
5:04 PM -7.6 °F -24.6 °F -16.6 °F 65% 30.45 in 3.0 mi NE 9.2 mph - 0.00 in Snow Light Snow
5:55 PM -9.9 °F -23.4 °F -17.0 °F 71% 30.66 in 10.0 mi North 5.8 mph - 0.00 in   Overcast
6:55 PM -8.0 °F -21.0 °F -16.1 °F 68% 30.66 in 9.0 mi NNE 5.8 mph - 0.00 in   Overcast
7:55 PM -9.0 °F -18.2 °F -17.0 °F 68% 30.68 in 10.0 mi North 3.5 mph - N/A   Clear
8:55 PM -11.0 °F -22.8 °F -18.0 °F 71% 30.69 in 10.0 mi North 4.6 mph - N/A   Partly Cloudy
9:55 PM -15.0 °F -29.3 °F -20.9 °F 75% 30.69 in 10.0 mi North 5.8 mph - N/A   Partly Cloudy
10:55 PM -18.0 °F -33.0 °F -23.1 °F 78% 30.70 in 10.0 mi NNW 5.8 mph - N/A   Clear
11:55 PM -18.0 °F -30.9 °F -23.1 °F 78% 30.70 in 10.0 mi WNW 4.6 mph - N/A   Clear